Tarboro, NC

5:58 PM EDT on May 26, 2017 (GMT -0400)
Tarboro-edgecombe

Weather History for KETC - February, 2013

Change the Weather History Date:

Wednesday, February 27, 2013

  Actual Average Record
Temperature  
Mean Temperature 54 °F -  
Max Temperature 61 °F 56 °F 81 °F (2011)
Min Temperature 44 °F 31 °F 12 °F (1963)
Degree Days  
Heating Degree Days 12    
Growing Degree Days 4 (Base 50)    
Moisture  
Dew Point 41 °F    
Average Humidity 67    
Maximum Humidity 87    
Minimum Humidity 40    
Precipitation  
Precipitation 0.00 in - - ()
Sea Level Pressure  
Sea Level Pressure 29.70 in    
Wind  
Wind Speed 7 mph (SW)    
Max Wind Speed 16 mph    
Max Gust Speed 22 mph    
Visibility 10 miles    
Events      
Averages and records for this station are not official NWS values.
T = Trace of Precipitation, MM = Missing Value Source: NWS Daily Summary

Daily Weather History Graph

Daily Weather History Graph

Search for Another Location

Airport or City:

Trip Planner

Search our weather history database for the weather conditions in past years. The results will help you decide how hot, cold, wet, or windy it might be!

Date:

Astronomy

Feb. 27, 2013 Rise Set
Actual Time 6:42 AM EST 6:03 PM EST
Civil Twilight 6:16 AM EST 6:29 PM EST
Nautical Twilight 5:47 AM EST 6:59 PM EST
Astronomical Twilight 5:17 AM EST 7:28 PM EST
Moon 8:16 PM EST (2/27) 7:22 AM EST (2/27)
Length of Visible Light 12h 12m
Length of Day
11h 20m
Waning Gibbous, 96% of the Moon is Illuminated
Feb 27
Waning Gibbous
Mar 4
Last Quarter
Mar 11
New
Mar 19
First Quarter
Mar 27
Full

Hourly Weather History & Observations

Time (EST) Temp. Windchill Dew Point Humidity Pressure Visibility Wind Dir Wind Speed Gust Speed Precip Events Conditions
12:15 AM 56.3 °F - 47.7 °F 73% 29.61 in 10.0 mi WSW 6.9 mph - N/A   Scattered Clouds
12:35 AM 54.7 °F - 47.5 °F 77% 29.61 in 10.0 mi WSW 4.6 mph - N/A   Clear
12:55 AM 53.4 °F - 48.0 °F 82% 29.61 in 10.0 mi SSW 4.6 mph - N/A   Clear
1:15 AM 52.7 °F - 47.7 °F 83% 29.62 in 10.0 mi SW 4.6 mph - N/A   Clear
1:35 AM 52.7 °F - 46.0 °F 78% 29.62 in 10.0 mi WSW 4.6 mph - N/A   Clear
1:55 AM 51.8 °F - 45.5 °F 79% 29.62 in 10.0 mi SSW 4.6 mph - N/A   Clear
2:15 AM 51.1 °F - 45.1 °F 80% 29.62 in 10.0 mi SW 3.5 mph - N/A   Clear
2:35 AM 50.5 °F - 45.0 °F 81% 29.61 in 10.0 mi SSW 3.5 mph - N/A   Clear
2:55 AM 49.5 °F - 45.0 °F 84% 29.61 in 10.0 mi SSW 4.6 mph - N/A   Clear
3:15 AM 49.3 °F - 45.5 °F 87% 29.61 in 10.0 mi SW 5.8 mph - N/A   Clear
3:35 AM 49.8 °F - 45.9 °F 86% 29.61 in 10.0 mi SW 6.9 mph - N/A   Clear
3:55 AM 50.0 °F - 45.7 °F 85% 29.62 in 10.0 mi SW 6.9 mph - N/A   Clear
4:15 AM 49.6 °F - 45.1 °F 84% 29.63 in 10.0 mi SW 10.4 mph 16.1 mph N/A   Clear
4:35 AM 49.3 °F - 44.6 °F 84% 29.63 in 10.0 mi SW 6.9 mph - N/A   Clear
4:55 AM 48.6 °F - 44.4 °F 86% 29.62 in 10.0 mi SSW 4.6 mph - N/A   Clear
5:15 AM 48.0 °F - 44.1 °F 86% 29.62 in 10.0 mi SSW 6.9 mph - N/A   Clear
5:35 AM 47.7 °F - 43.9 °F 87% 29.64 in 10.0 mi SW 8.1 mph - N/A   Clear
5:55 AM 47.7 °F - 43.3 °F 85% 29.65 in 10.0 mi WSW 13.8 mph 21.9 mph N/A   Mostly Cloudy
6:15 AM 47.7 °F - 42.4 °F 82% 29.67 in 10.0 mi WSW 12.7 mph 21.9 mph N/A   Overcast
6:55 AM 47.1 °F - 40.8 °F 79% 29.69 in 10.0 mi WSW 11.5 mph 19.6 mph N/A   Overcast
7:15 AM 46.8 °F - 40.5 °F 79% 29.70 in 10.0 mi WSW 9.2 mph 19.6 mph N/A   Overcast
7:35 AM 46.6 °F - 40.5 °F 79% 29.72 in 10.0 mi WSW 8.1 mph - N/A   Overcast
7:55 AM 46.4 °F 41.5 °F 40.6 °F 80% 29.73 in 10.0 mi West 10.4 mph - N/A   Mostly Cloudy
8:15 AM 46.9 °F - 40.8 °F 79% 29.74 in 10.0 mi WSW 6.9 mph 16.1 mph N/A   Mostly Cloudy
8:35 AM 47.7 °F - 41.0 °F 78% 29.75 in 10.0 mi West 9.2 mph - N/A   Mostly Cloudy
8:55 AM 48.7 °F - 41.5 °F 76% 29.75 in 10.0 mi West 11.5 mph - N/A   Mostly Cloudy
9:15 AM 49.3 °F - 41.7 °F 75% 29.76 in 10.0 mi West 11.5 mph - N/A   Mostly Cloudy
9:35 AM 50.7 °F - 42.3 °F 73% 29.76 in 10.0 mi WSW 10.4 mph 16.1 mph N/A   Scattered Clouds
9:55 AM 52.2 °F - 41.9 °F 68% 29.76 in 10.0 mi WSW 10.4 mph - N/A   Clear
10:35 AM 54.3 °F - 40.1 °F 59% 29.76 in 10.0 mi WNW 12.7 mph - N/A   Clear
10:55 AM 55.4 °F - 39.0 °F 54% 29.77 in 10.0 mi WNW 15.0 mph 18.4 mph N/A   Clear
11:15 AM 56.1 °F - 39.0 °F 53% 29.77 in 10.0 mi WSW 11.5 mph 18.4 mph N/A   Scattered Clouds
11:35 AM 56.8 °F - 39.0 °F 51% 29.77 in 10.0 mi West 11.5 mph - N/A   Scattered Clouds
11:55 AM 57.0 °F - 39.2 °F 51% 29.77 in 10.0 mi West 11.5 mph 18.4 mph N/A   Scattered Clouds
12:15 PM 57.4 °F - 39.9 °F 52% 29.76 in 10.0 mi WSW 8.1 mph - N/A   Scattered Clouds
12:35 PM 58.3 °F - 38.8 °F 48% 29.75 in 10.0 mi WSW 16.1 mph 19.6 mph N/A   Scattered Clouds
12:55 PM 58.1 °F - 37.8 °F 47% 29.74 in 10.0 mi West 11.5 mph 19.6 mph N/A   Scattered Clouds
1:15 PM 59.2 °F - 37.4 °F 44% 29.74 in 10.0 mi WSW 11.5 mph 17.3 mph N/A   Scattered Clouds
1:35 PM 59.4 °F - 36.5 °F 43% 29.73 in 10.0 mi West 10.4 mph 20.7 mph N/A   Clear
1:55 PM 60.1 °F - 36.7 °F 42% 29.72 in 10.0 mi West 12.7 mph 21.9 mph N/A   Clear
2:15 PM 60.4 °F - 36.1 °F 40% 29.72 in 10.0 mi WSW 10.4 mph 16.1 mph N/A   Clear
2:35 PM 61.0 °F - 36.5 °F 40% 29.72 in 10.0 mi WSW 8.1 mph 17.3 mph N/A   Clear
2:55 PM 61.2 °F - 36.3 °F 40% 29.72 in 10.0 mi WSW 13.8 mph 18.4 mph N/A   Clear
3:35 PM 61.2 °F - 36.7 °F 40% 29.71 in 10.0 mi WSW 10.4 mph - N/A   Clear
3:55 PM 61.2 °F - 37.0 °F 41% 29.72 in 10.0 mi WSW 6.9 mph - N/A   Clear
4:15 PM 61.2 °F - 37.2 °F 41% 29.71 in 10.0 mi SW 9.2 mph - N/A   Clear
4:35 PM 60.6 °F - 37.4 °F 42% 29.71 in 10.0 mi WSW 9.2 mph - N/A   Clear
4:55 PM 59.7 °F - 37.4 °F 43% 29.71 in 10.0 mi SW 5.8 mph 9.2 mph N/A   Clear
5:15 PM 58.6 °F - 38.7 °F 47% 29.72 in 10.0 mi South 10.4 mph - N/A   Clear
5:35 PM 58.1 °F - 38.7 °F 48% 29.72 in 10.0 mi SSW 6.9 mph - N/A   Clear
5:55 PM 57.0 °F - 39.4 °F 52% 29.73 in 10.0 mi SSW 6.9 mph - N/A   Clear
6:15 PM 55.2 °F - 40.1 °F 57% 29.73 in 10.0 mi SSW 9.2 mph - N/A   Clear
6:35 PM 54.5 °F - 39.7 °F 57% 29.74 in 10.0 mi SW 5.8 mph - N/A   Clear
6:55 PM 53.6 °F - 39.6 °F 59% 29.74 in 10.0 mi SSW 6.9 mph - N/A   Clear
7:15 PM 52.9 °F - 39.6 °F 61% 29.74 in 10.0 mi SSW 4.6 mph - N/A   Clear
7:35 PM 52.0 °F - 39.7 °F 63% 29.74 in 10.0 mi SSW 4.6 mph - N/A   Clear
7:55 PM 51.1 °F - 39.9 °F 66% 29.73 in 10.0 mi South 4.6 mph - N/A   Clear
8:15 PM 50.5 °F - 39.9 °F 67% 29.73 in 10.0 mi SSW 4.6 mph - N/A   Clear
8:35 PM 49.3 °F - 40.1 °F 71% 29.73 in 10.0 mi SSW 4.6 mph - N/A   Clear
9:15 PM 47.3 °F - 39.7 °F 75% 29.74 in 10.0 mi SSW 5.8 mph - N/A   Clear
9:55 PM 47.3 °F - 39.7 °F 75% 29.73 in 10.0 mi SSW 4.6 mph - N/A   Clear
10:15 PM 47.1 °F - 39.7 °F 76% 29.73 in 10.0 mi SSW 4.6 mph - N/A   Clear
10:35 PM 46.8 °F - 39.6 °F 76% 29.72 in 10.0 mi SSW 4.6 mph - N/A   Clear
10:55 PM 46.6 °F - 39.6 °F 77% 29.72 in 10.0 mi SW 4.6 mph - N/A   Clear
11:15 PM 47.1 °F - 39.6 °F 75% 29.72 in 10.0 mi SSW 3.5 mph - N/A   Clear
11:35 PM 46.6 °F - 39.7 °F 77% 29.71 in 10.0 mi Calm Calm - N/A   Clear
11:55 PM 44.2 °F - 39.2 °F 82% 29.71 in 10.0 mi Calm Calm - N/A   Clear